www.pogodaiklimat.ru
ПОГОДА в Ридсвилле
Время
и дата
05:55 01.12
06:15 01.12
06:35 01.12
06:55 01.12
07:15 01.12
07:35 01.12
07:55 01.12
08:15 01.12
08:35 01.12
08:55 01.12
09:15 01.12
09:35 01.12
09:55 01.12
10:55 01.12
11:15 01.12
11:35 01.12
12:15 01.12
12:35 01.12
12:55 01.12
13:15 01.12
13:35 01.12
13:55 01.12
14:15 01.12
14:35 01.12
14:55 01.12
15:15 01.12
15:35 01.12
15:55 01.12
16:15 01.12
16:35 01.12
16:55 01.12
17:15 01.12
17:35 01.12
17:55 01.12
18:15 01.12
18:35 01.12
18:55 01.12
19:15 01.12
19:35 01.12
19:55 01.12
20:15 01.12
20:35 01.12
20:55 01.12
21:15 01.12
21:35 01.12
21:55 01.12
22:15 01.12
22:35 01.12
Ветер
(напр.,м/с)
Видим. Явления Облачность Т
(С)
Тd
(С)
f
(%)
Тe
(С)
Тes
(С)
Комфортность P
(гПа)
Po
(гПа)
Тmin
(С)
Tmax
(С)
R
(мм)
R24
(мм)
S
(см)
З 9
{16}
16 км 10/10 1470 м 0.0 -10.0 47 -7 -7 992.6
З 8
{14}
16 км 10/10 1350 м 0.0 -9.0 51 -7 -7 992.9
З 8
{15}
16 км 10/10 1290 м 0.0 -9.0 51 -7 -7 993.3
З 11
{14}
16 км 10/10 1230 м 0.0 -9.0 51 -8 -8 993.6
З 9
{14}
16 км 10/10 1230 м 0.0 -9.0 51 -7 -7 993.9
З 7
{16}
16 км 10/10 1230 м 0.0 -9.0 51 -6 -6 994.6
З 7
{13}
16 км 10/10 1260 м 0.0 -9.0 51 -6 -6 994.9
ЮЗ 8
{13}
16 км 10/10 1290 м 0.0 -9.0 51 -7 -7 995.2
ЮЗ 8
{12}
16 км 10/10 1260 м 0.0 -8.0 55 -7 -7 995.9
ЮЗ 8
{13}
16 км 10/10 1260 м 0.0 -8.0 55 -7 -7 996.2
З 10
{14}
16 км 8/8 1290 м 0.0 -8.0 55 -8 -8 996.6
ЮЗ 7
{12}
16 км 2/2 1320 м 0.0 -8.0 55 -6 -6 996.6
З 6
{13}
16 км ясно +1.0 -8.0 51 -5 -4 996.6
З 5
{11}
16 км 10/10 1200 м +1.0 -8.0 51 -4 -4 997.9
З 11
{15}
16 км 10/10 1200 м +2.0 -7.0 51 -5 -5 997.9
СЗ 10
{17}
16 км 8/8 1230 м +2.0 -7.0 51 -5 -5 997.9
З 10
{14}
16 км ясно +1.0 -8.0 51 -6 -6 998.2
СЗ 7
{16}
16 км 2/2 1260 м +1.0 -8.0 51 -5 -4 998.2
З 10
{17}
16 км н/о +2.0 -7.0 51 -5 -5 998.2
нст 3
{10}
16 км 2/2 1230 м +2.0 -7.0 51 -2 +1 998.5
СЗ 3
{8}
16 км 2/2 1290 м +2.0 -7.0 51 -2 +1 998.5
нст 2
{6}
н/о н/о +3.0 -7.0 48 +1 +1 998.5
З 6 16 км н/о +3.0 -7.0 48 -2 -2 998.9
З 5
{9}
16 км 2/2 1350 м +3.0 -7.0 48 -2 0 999.2
З 7
{9}
16 км 5/5 1350 м +3.0 -7.0 48 -2 -2 999.5
З 7
{10}
16 км 8/8 1350 м +2.0 -7.0 51 -4 -4 999.8
З 6
{10}
16 км 2/2 1350 м +2.0 -8.0 47 -3 -3 999.8
СЗ 4
{8}
16 км ясно +2.0 -8.0 47 -2 -1 1000.2
З 5
{10}
16 км 2/2 1260 м +1.0 -8.0 51 -4 -4 1000.5
З 6
{9}
16 км ясно +1.0 -8.0 51 -5 -4 1000.8
ЮЗ 3
{8}
16 км ясно +1.0 -8.0 51 -3 -2 1000.8
ЮЗ 3
{5}
16 км ясно 0.0 -7.0 59 -4 -4 1000.8
ЮЗ 3
{7}
16 км ясно -1.0 -7.0 64 -5 -5 1001.2
ЮЗ 3
{7}
16 км ясно 0.0 -7.0 59 -4 -4 1001.2
ЮЗ 4 16 км ясно 0.0 -7.0 59 -5 -5 1001.2
нст 3
{6}
16 км 5/5 1080 м 0.0 -7.0 59 -4 -4 1001.2
ЮЗ 4 16 км 8/8 1050 м 0.0 -7.0 59 -5 -5 1001.5
ЮЗ 2
{6}
16 км 8/8 1050 м -1.0 -7.0 64 -4 -4 1001.2
ЮЗ 2 16 км ясно -1.0 -7.0 64 -4 -4 1001.2
ЮЗ 4 16 км ясно -1.0 -7.0 64 -6 -6 1001.2
штиль 0 16 км ясно -2.0 -7.0 69 -3 -3 1001.2
ЮЗ 2
{6}
16 км ясно -1.0 -7.0 64 -4 -4 1001.5
Ю 4
{6}
16 км ясно -1.0 -7.0 64 -6 -6 1001.2
З 3 16 км ясно -1.0 -7.0 64 -5 -5 1001.5
штиль 0 16 км ясно -2.0 -7.0 69 -3 -3 1001.8
нст 3 16 км ясно -1.0 -7.0 64 -5 -5 1001.5
Ю 2 16 км ясно -2.0 -8.0 63 -5 -5 1001.5
ЮВ 2 16 км ясно -2.0 -7.0 69 -6 -6 1001.5
Местоположение метеостанции Mifflin County Airport: широта 40.6774 долгота -77.6268 высота над уровнем моря 250 м.
В архиве по умолчанию представлена погода в Ридсвилле за последние 1-2 суток. Обновление информации о фактической погоде в базе происходит ежечасно! Архивные данные за месяц целиком и за предыдущие месяцы Вы можете получить, выбрав интересующий диапазон дат из раскрывающегося списка и нажав кнопку "Ввод!".
Внимание! Архив погоды МЕТАР в базе сайта по станциям, не включенным в климатический монитор, хранится не более 60 дней. Нет смысла пытаться выбрать более раннюю дату.
*Определитесь, кто Вы:
Внимание! Время в таблицах - местное (без учета летнего времени). Для получения всемирного времени необходимо вычесть поправку, которая равна -5 ч.
Смотрите также архив погоды в соседних городах и на ближайших метеорологических станциях:
Партнеры нашего сайта:      
Пояснения к столбцам:
  • Ветер - указаны скорость ветра в м/с - средняя за 10 мин, порывы в срок и между сроками (в фигурных скобках) и направление, откуда дует ветер: С - северный,
  • СВ - северо-восточный, В - восточный, ЮВ - юго-восточный, Ю - южный, ЮЗ - юго-западный, З - западный, СЗ - северо-западный.
  • Видимость - горизонтальная дальность видимости в метрах или километрах. При видимости от 1 до 10 км при отсутствии осадков обычно наблюдается дымка, при ухудшении видимости до 1 км и менее - туман. В сухую погоду видимость может ухудшаться дымом, пылью или мглою.
  • Явления - указаны атмосферные явления, наблюдавшиеся в срок или в последний час перед сроком; фигурными скобками обозначены явления, наблюдавшиеся между сроками (за 1-3 часа до срока); квадратными скобками обозначены град или гололедные отложения с указанием их диаметра в мм.
  • Облачность - указаны через наклонную черту общая и нижняя облачность в баллах и высота нижней границы облаков в метрах; квадратными скобками обозначены формы облаков: Ci - перистые, Cs - перисто-слоистые, Cc - перисто-кучевые, Ac - высококучевые, As - высокослоистые, Sc - слоисто-кучевые, Ns - слоисто-дождевые, Cu - кучевые, Cb - кучево-дождевые. Подробнее классификацию облаков см. в Атласе облаков (PDF).
  • T - Температура воздуха - температура, измеренная на высоте 2 м над землей.
  • Td - Температура точки росы - температура, при понижении до которой содержащийся в воздухе водяной пар достигнет насыщения.
  • f - Относительная влажность воздуха - влажноcть воздуха, измеренная на высоте 2 м над землей.
  • Te - Эффективная температура - температура, которую ощущает одетый по сезону человек в тени. Характеристика душности погоды. При расчете учитывается влияние влажности воздуха и скорости ветра на теплоощущения человека.
  • Tes - Эффективная температура на солнце - температура, которую ощущает человек, с поправкой на солнечный нагрев. Характеристика знойности погоды. Зависит от высоты солнца над горизонтом, облачности и скорости ветра. Ночью, в пасмурную погоду, а также при ветре 12 м/с и более поправка равна нулю.
  • P - Атмосферное давление - приведенное к уровню моря атмосферное давление.
  • Po - Атмосферное давление - измеренное на уровне метеостанции атмосферное давление.
  • Tmin - Минимальная температура - минимум температуры воздуха на высоте 2 м над землей.
  • Tmax - Максимальная температура - максимум температуры воздуха на высоте 2 м над землей.
  • R - Количество осадков - Количество выпавших осадков за период времени, мм. При наведении курсора мыши на число - период времени, за который выпало указанное количество осадков.
  • R24 - Количество осадков - Количество выпавших осадков за 24 часа, мм.
  • S - Снежный покров - Высота снежного покрова, см. При наведении курсора мыши на число - состояние снежного покрова и степень покрытия местности в баллах.